Location: Canazei
(46.4667°N, 11.7667°E)
Time: 04:16:46
(UTC+00:00)

Resurs 1-4 Rocket - Pass Details

Date: 21 April 2021
Orbit: 799 x 815 km, 98.6° (Epoch: 10 May)

Event Time Altitude Azimuth Distance (km) Brightness Sun altitude
Rises 00:53:19 0° 14° (NNE) 3,325 6.5 -27.4°
Reaches altitude 10° 00:55:40 10° 15° (NNE) 2,388 5.5 -27.2°
Maximum altitude 01:00:57 87° 104° (ESE) 808 2.0 -26.7°
Enters shadow 01:01:06 84° 158° (SSE) 810 1.9 -26.7°
